EHI
16 14 10 12 20 29 31 29 27 27 30 30 27 25 23 20 20 22 22 18 13 10 8 8 9 11 9 7 6 6 7 8 6 2 2 3 4 5 7 9 12 12 12
19 18 15 16 24 33 34 32 30 30 29 27 25 24 22 20 20 23 23 18 13 11 9 10 11 11 10 7 6 6 5 6 5 3 2 2 2 4 5 7 10 12 12
20 20 19 19 26 35 38 36 36 35 29 25 23 22 22 21 22 26 25 19 15 12 11 12 12 11 11 9 8 6 4 4 4 3 2 1 1 2 4 6 8 8 9
18 20 21 21 24 32 37 40 42 40 33 27 25 23 22 21 22 25 24 20 16 13 11 11 12 12 13 12 10 9 8 6 5 4 3 2 2 3 5 6 6 6 6
18 22 27 27 24 26 33 41 47 46 39 30 26 25 21 18 19 22 23 20 17 14 11 10 12 14 15 14 12 11 11 11 10 8 6 5 4 4 6 7 7 6 5
19 25 33 35 29 26 32 42 49 50 44 33 27 24 19 17 18 21 23 19 17 15 12 10 11 14 15 15 15 14 13 14 13 11 9 9 7 6 7 8 7 5 4
20 27 36 40 36 32 36 44 51 51 44 35 29 25 20 18 20 23 22 18 15 15 16 15 15 16 16 15 16 18 18 17 13 11 11 11 9 8 8 7 6 5 4
20 27 35 39 38 39 42 49 55 53 45 39 34 31 25 20 21 23 21 17 13 14 19 22 22 20 17 15 17 20 20 18 14 12 12 10 9 9 8 6 6 6 5
18 22 29 32 35 41 47 52 57 56 48 42 38 34 29 24 20 21 21 18 14 13 19 24 24 22 18 15 15 16 15 14 13 11 10 9 8 8 7 6 7 7 7
16 18 21 25 31 40 48 54 59 61 53 46 40 34 32 29 23 21 21 21 18 16 18 20 20 20 18 16 15 13 10 9 9 8 8 9 9 7 5 5 7 9 9
16 17 19 24 31 38 46 53 60 62 57 49 43 40 38 34 28 25 24 24 22 20 19 18 16 17 17 16 16 14 9 7 7 8 9 9 8 6 4 4 6 8 9
19 19 22 28 34 39 44 51 57 59 55 51 48 46 43 38 33 30 28 26 24 23 22 20 18 16 16 14 14 13 11 8 8 10 10 9 8 7 7 7 7 7 8
23 24 28 36 41 44 47 51 53 52 51 50 50 48 45 40 35 32 31 27 24 23 23 21 20 17 14 12 12 12 12 11 9 10 13 13 11 10 11 11 10 8 7
28 31 38 46 52 54 53 53 52 49 49 51 51 48 45 40 36 33 30 27 24 22 21 20 18 14 11 11 12 12 13 11 10 11 14 17 16 13 12 12 11 10 9
34 39 47 56 62 63 60 57 53 50 51 51 49 47 44 40 37 32 29 27 24 21 20 19 16 12 9 10 11 13 12 12 13 13 13 16 16 13 10 9 10 10 10
40 45 53 61 66 68 66 60 55 53 53 51 48 46 45 40 35 30 28 27 25 23 22 22 18 12 8 7 9 11 12 14 17 17 14 13 13 12 9 7 6 7 8
48 50 54 59 63 65 64 58 55 56 55 52 48 46 44 40 34 30 29 29 28 27 25 25 22 16 9 5 5 7 11 16 19 19 17 15 14 13 12 9 7 6 6
55 53 50 52 54 56 55 53 53 56 56 53 50 47 43 38 35 33 33 32 31 28 25 25 25 20 12 6 2 4 10 16 18 19 18 17 15 15 15 14 12 11 10
56 52 46 45 49 50 50 49 51 53 53 52 50 47 42 38 36 36 36 35 32 27 24 25 25 23 16 8 2 4 11 15 17 17 16 15 14 14 13 14 16 14 13
52 50 45 46 49 52 53 52 50 51 51 51 49 47 43 40 38 36 35 35 33 30 27 27 26 25 19 11 3 4 10 15 16 15 13 12 11 10 10 12 15 14 12
51 49 48 50 54 56 58 57 53 51 51 50 50 49 45 40 38 37 34 33 34 34 32 30 27 25 21 13 5 3 8 13 16 15 13 11 9 7 6 9 12 12 10
49 49 50 54 58 60 60 59 56 53 51 51 52 52 48 41 37 36 35 35 36 36 34 30 25 23 21 15 7 2 4 8 13 14 11 8 6 3 2 4 6 6 5
47 47 50 55 59 60 59 57 55 54 53 53 54 54 50 43 38 36 37 39 40 35 32 28 24 21 21 19 12 5 1 3 7 9 7 4 2 1 1 1 1 2 3
45 45 49 54 57 57 56 55 55 56 56 55 54 53 50 44 39 37 38 40 39 34 30 27 23 22 22 21 17 12 6 4 5 7 6 4 3 2 2 2 2 3 5
43 43 45 50 53 54 53 54 56 60 60 57 53 48 45 41 39 37 35 34 32 28 24 22 20 18 17 16 15 14 12 10 9 10 11 11 9 7 6 8 8 8 10
41 41 43 47 50 51 52 53 57 61 63 58 50 43 40 38 36 35 31 26 23 20 16 15 14 11 9 8 9 11 12 10 9 12 16 16 14 11 11 13 13 13 14
Wind_Speed
10 9 8 9 9 7 6 5 5 4 2 2 1 1 1 1 2 3 3 3 2 3 2 2 2 2 2 1 2 2 2 1 2 2 1 1 1 2 2 2 2 2 2
11 10 8 8 8 7 6 6 5 4 3 2 1 1 1 1 2 3 3 3 3 2 3 3 1 2 2 2 1 1 1 1 1 2 2 1 0 1 1 2 2 3 3
12 11 9 9 8 8 7 6 5 5 3 3 2 1 1 1 2 3 2 2 2 2 2 3 2 2 2 2 2 2 2 1 0 1 1 1 1 0 1 1 2 2 2
13 12 11 9 9 8 8 6 6 5 4 3 2 2 2 2 2 2 2 2 1 2 2 2 2 1 1 2 2 2 1 2 1 0 0 1 2 2 1 0 2 2 2
13 13 12 10 9 9 8 7 7 5 4 3 2 1 1 1 2 2 3 2 2 2 2 2 1 1 1 2 1 1 1 1 0 0 1 1 1 2 2 1 1 1 1
13 13 12 10 9 9 9 9 8 6 5 4 3 2 1 2 2 2 2 1 2 1 2 2 1 1 0 1 1 1 1 1 0 1 0 0 1 1 1 2 1 1 1
12 12 12 12 10 10 9 9 9 7 6 5 3 3 2 2 1 1 2 1 1 2 2 2 2 1 1 1 1 1 1 1 1 0 0 0 0 0 1 1 1 1 1
13 12 12 12 11 10 9 9 10 8 7 6 4 4 3 2 2 1 1 1 0 1 3 3 2 1 1 1 1 1 1 1 0 0 0 0 0 0 1 1 1 1 1
13 13 13 12 12 11 10 10 10 9 7 7 5 4 4 2 1 2 1 1 1 1 3 2 2 1 1 1 1 1 1 1 0 0 0 1 1 1 0 0 1 1 1
12 13 12 12 11 11 10 9 10 9 8 7 6 6 5 3 2 2 2 1 1 2 2 2 2 2 1 1 0 0 1 1 0 0 0 1 1 1 1 0 0 0 1
10 11 11 11 10 10 10 10 10 9 8 7 6 4 5 4 3 2 3 2 1 2 1 1 1 1 1 1 0 0 1 1 0 0 0 0 1 1 1 1 1 1 2
9 10 11 11 10 10 10 9 9 10 9 7 6 5 5 4 4 3 2 2 2 2 2 1 1 2 2 1 0 1 1 1 1 1 1 0 0 1 1 1 1 0 1
7 9 10 10 9 9 8 9 9 9 9 8 7 6 5 4 3 3 3 3 2 2 2 2 1 1 1 1 1 1 1 1 1 1 1 1 1 1 1 1 0 1 0
6 7 8 8 8 7 7 7 8 8 8 7 7 6 6 5 4 3 3 3 3 2 2 2 1 1 1 1 1 1 1 1 1 1 1 0 0 0 0 0 0 0 0
5 6 7 7 8 8 7 7 7 6 7 7 7 6 5 5 4 4 3 3 3 3 2 2 2 1 1 1 1 1 2 1 1 1 1 1 2 2 1 0 1 0 1
5 5 6 6 7 7 7 7 7 7 6 6 6 6 5 5 5 4 4 3 3 2 3 2 2 1 1 3 3 1 0 1 1 1 1 2 2 2 2 2 1 0 1
5 5 5 5 5 6 6 7 7 7 7 6 6 6 6 6 5 5 4 4 3 3 3 2 2 2 3 4 3 2 0 0 0 0 0 1 1 2 1 1 2 2 2
5 4 4 6 5 6 6 6 7 7 7 7 6 6 6 6 5 4 4 4 3 3 2 2 2 2 2 3 2 1 1 0 0 1 1 1 0 0 0 1 1 1 2
4 4 4 4 5 5 6 5 7 7 7 8 7 7 6 6 5 5 4 4 4 3 3 3 3 2 2 3 2 1 1 1 2 2 0 1 1 0 0 1 1 2 2
4 4 3 3 4 4 4 5 6 7 7 7 7 7 6 6 6 5 4 4 3 4 3 3 3 3 3 4 3 2 1 1 2 1 1 2 1 1 1 1 2 3 3
5 4 3 3 3 3 4 4 5 5 5 5 6 7 7 6 6 5 4 4 4 4 4 3 3 4 4 5 5 5 2 2 2 2 1 1 2 2 2 2 2 3 3
4 4 3 3 2 2 4 4 3 4 4 4 6 7 7 7 7 5 5 5 5 4 4 4 3 3 3 4 5 5 4 3 2 1 0 1 3 4 4 3 3 3 3
3 3 3 3 2 2 3 4 3 3 4 4 4 5 5 5 4 6 5 5 4 4 4 3 3 3 2 3 5 6 5 4 2 1 2 0 3 3 4 5 4 2 2
3 3 3 2 2 2 2 3 3 2 4 4 4 4 4 4 4 3 4 4 4 4 3 3 3 3 3 2 2 3 3 3 2 2 2 2 4 4 3 2 2 2 2
2 2 2 2 1 2 2 3 3 3 4 4 4 4 4 4 3 3 2 3 2 2 3 2 2 2 2 2 3 3 2 2 2 2 2 2 2 2 2 2 2 2 2
2 2 2 1 2 1 2 2 2 4 4 4 3 4 4 4 4 4 2 2 2 3 4 3 2 2 2 4 4 3 2 2 3 2 2 2 2 2 2 2 2 2 2
Wind_Direction
144 142 142 136 132 126 123 119 111 108 113 106 107 106 108 105 108 114 114 121 119 117 122 99 124 125 115 122 121 133 150 141 119 100 87 96 122 141 135 138 135 138 146
148 148 151 146 141 136 133 128 125 125 127 117 113 114 105 112 110 98 103 113 114 118 131 117 126 115 124 129 132 146 130 141 145 148 137 117 76 8 126 143 147 139 141
156 157 162 158 152 148 149 147 136 135 131 125 131 97 90 57 86 103 109 108 110 119 97 115 122 125 143 143 162 159 155 157 116 85 135 140 140 100 68 93 110 117 118
162 162 165 167 161 155 152 137 136 136 133 136 129 131 119 95 85 104 113 110 101 100 93 106 110 107 108 136 184 157 166 152 176 133 63 121 136 150 141 179 117 131 137
165 164 166 166 166 161 156 147 140 136 132 141 137 130 100 110 106 101 114 121 118 120 114 116 116 108 120 140 118 118 136 122 150 164 126 102 111 140 153 162 153 129 170
164 163 163 161 165 163 159 155 146 144 148 154 147 146 128 90 87 83 100 140 142 148 142 138 119 112 130 127 128 141 138 113 62 9 24 113 130 159 151 163 170 162 170
162 164 164 163 165 166 165 157 149 152 159 163 161 159 146 130 129 148 140 186 146 145 148 124 126 128 121 128 143 152 149 146 156 167 314 351 48 81 125 144 153 147 155
165 165 165 165 167 168 164 159 155 159 166 170 167 164 155 177 174 184 164 169 122 119 132 128 129 129 130 115 117 131 168 152 168 271 334 312 306 313 140 156 161 151 153
166 167 168 172 172 171 167 163 157 160 167 172 167 169 177 198 174 151 194 157 126 144 118 122 125 117 88 40 37 90 53 80 156 243 198 256 289 288 264 196 182 164 164
165 167 168 171 170 169 163 162 160 162 166 170 175 176 179 182 174 168 164 155 125 96 124 131 134 138 136 141 295 125 113 115 262 279 339 322 318 316 310 298 203 136 144
166 165 165 166 164 163 165 166 161 162 168 173 174 168 167 177 180 172 162 166 157 140 140 148 156 156 144 133 92 175 165 163 218 266 135 197 356 343 341 350 42 80 114
166 160 157 159 163 166 166 163 164 168 170 169 166 167 165 172 177 169 156 155 155 147 150 164 167 175 150 140 155 272 79 89 82 40 18 334 31 32 345 1 41 69 149
157 153 152 156 159 159 160 163 166 168 168 167 169 164 167 170 174 164 156 155 152 154 153 156 157 162 146 153 145 89 64 59 70 73 31 9 1 23 23 39 338 242 157
157 157 151 151 152 153 154 158 165 167 165 162 163 163 169 170 169 163 156 157 148 152 157 151 153 152 133 141 143 144 144 122 101 100 98 72 33 64 292 179 303 345 356
169 155 149 147 152 153 152 155 160 160 161 158 161 162 163 162 158 155 159 155 155 165 154 153 156 154 163 171 144 176 172 168 162 154 134 110 88 76 47 35 42 351 300
166 150 142 141 147 151 157 161 161 160 154 157 161 158 160 158 161 159 159 155 160 165 155 162 161 175 161 93 95 85 176 167 178 172 154 154 134 128 113 75 61 98 251
150 153 147 146 149 153 154 158 161 159 157 158 162 160 160 159 165 171 166 168 169 171 166 164 158 133 92 83 90 73 316 137 104 135 182 236 142 148 153 181 215 230 245
142 139 150 150 156 159 161 164 167 164 162 165 167 163 163 164 168 169 168 168 166 174 175 178 164 152 130 116 106 62 208 269 276 254 233 252 63 352 129 205 206 243 254
122 129 144 151 159 165 164 162 170 169 169 171 171 169 169 166 170 172 174 174 171 176 188 177 170 163 150 154 153 157 213 240 261 260 201 124 135 15 44 247 262 265 261
110 121 137 142 148 160 163 170 174 174 175 174 173 168 167 169 175 176 179 178 176 187 189 179 179 176 171 171 175 185 230 239 250 246 164 106 74 92 103 263 266 275 284
115 119 128 132 141 152 153 173 177 172 176 172 167 167 171 175 176 174 176 177 185 191 194 189 185 180 180 175 184 188 227 255 251 234 206 165 160 176 209 239 257 264 284
119 122 123 126 134 151 158 171 175 166 165 167 169 171 174 187 181 173 180 184 189 193 197 193 195 185 177 170 181 189 213 255 286 294 337 148 177 203 220 231 263 281 291
123 121 116 116 121 137 153 164 159 158 164 162 167 171 174 175 168 174 180 185 190 200 202 196 198 194 183 165 173 189 211 234 256 320 358 338 202 220 228 233 252 267 269
116 107 116 130 136 148 159 154 153 163 172 168 165 166 167 169 171 181 179 183 190 198 197 196 200 186 174 165 167 191 207 216 229 259 266 226 217 237 257 244 224 227 246
117 119 132 145 150 158 168 168 168 169 173 164 160 164 167 162 163 165 167 178 166 183 193 200 196 183 176 178 171 181 194 211 217 223 220 220 212 227 230 223 222 227 229
138 134 150 167 162 180 180 164 167 168 169 169 176 182 176 169 173 168 159 78 128 142 139 130 133 138 134 143 146 158 184 211 201 205 224 226 233 246 252 250 240 227 232